Overview Statistics Trail Chart Weather Telemetry Raw packets
 

This is the latest recevied weather packets stored in our database for station/object KY0TEQ-13. If no packets are shown the sender has not sent any weather packets the latest 10 day(s).

<< 67 68 69 70 71 72 73 >>
Time Temp. Humidity Pressure Rain* Wind** Luminosity Snow
1788212660 15.56° C 77% 1312.3 hPa 0 mm - 79 W/m² -
1788212355 15.56° C 78% 1312.2 hPa 1.78 mm - 107 W/m² -
1788212052 15.56° C 79% 1311.9 hPa 1.78 mm - 107 W/m² -
1788211752 15.56° C 79% 1311.7 hPa 0 mm - 158 W/m² -
1788211449 15.56° C 78% 1311.8 hPa 0 mm - 167 W/m² -
1788211148 15.56° C 77% 1312.2 hPa 0 mm - 103 W/m² -
1788210843 15.56° C 80% 1312.3 hPa 0 mm - 123 W/m² -
1788210541 15.56° C 80% 1312.1 hPa 0 mm - 118 W/m² -
1788210237 15.56° C 81% 1311.7 hPa 0 mm - 181 W/m² -
1788209933 15.56° C 80% 1311.9 hPa 0 mm - 206 W/m² -
1788209628 15.56° C 79% 1312.2 hPa 1.27 mm - 153 W/m² -
1788209323 15.56° C 80% 1312.4 hPa 1.27 mm - 120 W/m² -
1788209022 15.56° C 81% 1312.4 hPa 0 mm - 83 W/m² -
1788208722 15.56° C 81% 1312.3 hPa 0 mm - 83 W/m² -
1788208417 15.56° C 80% 1312.4 hPa 0 mm - 101 W/m² -
1788208115 15.56° C 81% 1312.3 hPa 0 mm - 114 W/m² -
1788207810 15.56° C 82% 1312.4 hPa 0 mm - 106 W/m² -
1788207510 15.56° C 83% 1312.4 hPa 0 mm - 180 W/m² -
1788207209 15° C 83% 1312.3 hPa 1.78 mm - 203 W/m² -
1788206905 15° C 82% 1312.4 hPa 1.78 mm - 136 W/m² -
1788206600 15° C 82% 1313 hPa 3.05 mm - 126 W/m² -
1788206295 15° C 82% 1312.9 hPa 1.78 mm - 101 W/m² -
1788205990 15° C 81% 1312.8 hPa 1.27 mm - 62 W/m² -
1788205686 15° C 81% 1312.8 hPa 0 mm - 91 W/m² -
1788205381 15° C 81% 1312.7 hPa 1.78 mm - 93 W/m² -

* Rain latest hour (hover to see other rain measurements)
** Current wind speed in m/s (hover to see current wind gust speed)